Location: Sungai Geng
(2.6167°N, 114.1333°E)
Time: 05:37:13
(UTC+00:00)

Daily predictions for brighter satellites

Satellite Brightness Start Highest point End
(mag) Time Altitude Azimuth Time Altitude Azimuth Time Altitude Azimuth
PAYLOAD B 4.3 10:22:57 10° SSE 10:28:18 55° ENE 10:33:39 10° N
ARIANE 5 R/B 3.2 10:24:38 10° W 10:31:01 59° SSW 10:34:17 10° ESE
Cosmos 1048 Rocket 4.0 10:25:58 10° NNW 10:31:12 89° ENE 10:36:23 10° SSE
ARIANE 5 R/B 2.2 10:30:51 10° WSW 10:32:43 34° S 10:36:27 10° ESE
DMSP B5D2-2 4.5 10:28:40 10° NNE 10:33:31 41° ESE 10:38:23 10° S
DELTA 2 R/B (1) 3.6 10:30:24 10° SW 10:36:02 83° SE 10:41:38 10° NE
Timation 2 Rocket 4.0 10:29:44 10° NNW 10:36:21 81° ENE 10:42:40 10° SSE
ARIANE 5 R/B 4.0 10:35:11 10° WSW 10:39:13 52° SSE 11:01:54 11° E
ARIANE 5 R/B 4.0 10:35:12 10° WSW 10:39:13 52° SSE 11:01:55 11° E
ARIANE 5 R/B 4.0 10:35:12 10° WSW 10:39:13 52° SSE 11:01:54 11° E
ARIANE 5 R/B 4.0 10:35:11 10° WSW 10:39:13 52° SSE 11:01:53 11° E
ARIANE 5 R/B 4.0 10:35:12 10° WSW 10:39:13 52° SSE 11:01:56 11° E
deb Chang Zheng 4 3.6 10:35:39 10° SSE 10:39:44 53° ENE 10:43:49 10° N
Centaur D-1AR AC-39 2.0 10:37:36 10° WNW 10:40:51 73° SSW 10:47:43 10° ESE
Lacrosse 5 3.4 10:39:19 10° SSE 10:42:44 18° ESE 10:45:30 12° E
Cosmos 494 Rocket 4.1 10:40:31 10° NNW 10:45:38 82° WSW 10:50:45 10° S
Delta 168 4.1 10:43:16 10° SSW 10:46:02 23° SSE 10:48:48 13° E
Cosmos 1605 Rocket 3.9 10:41:19 10° S 10:47:28 77° E 10:53:41 10° N
MOS 1-B 4.3 10:43:19 10° SSE 10:49:08 86° ENE 10:54:55 10° NNW
CZ-4B R/B 2.6 10:47:20 11° NE 10:49:52 23° E 10:52:34 10° SSE
SPELTRA 3.7 10:48:34 10° WNW 10:52:18 55° N 11:00:17 16° E
GPS 2-14 Rocket1 2.7 10:50:16 10° WNW 10:54:13 75° SSW 10:57:30 14° ESE
Cosmos 2263 Rocket 3.1 10:50:43 10° NNE 10:55:10 25° ENE 10:59:38 10° SE
ARIANE 5 DEB (SYLDA) 4.3 10:51:25 10° WNW 10:55:31 64° N 11:05:57 17° E
Cosmos 1703 3.5 10:52:28 10° N 10:56:19 72° W 11:00:10 10° S
Okean 1-7 Rocket 3.9 10:53:24 10° NNE 10:57:37 42° E 11:01:52 10° SSE
CZ-4C R/B 2.3 10:57:45 10° S 11:01:36 32° ESE 11:03:29 22° ENE
NOSS 2-2 (D) 4.1 10:59:11 10° SSW 11:03:59 57° WNW 11:07:40 10° N
Cosmos 1607 4.0 10:58:51 10° N 11:04:46 51° ENE 11:10:38 10° SE
Centaur AC-119 3.8 11:02:55 10° NW 11:06:47 51° NE 11:20:26 11° ESE
Cosmos 405 Rocket 3.1 11:03:42 10° N 11:07:42 72° W 11:11:44 10° S
Cosmos 292 Rocket 4.4 11:03:45 10° SSE 11:08:06 34° ESE 11:10:12 24° ENE
Intelsat 5-3 Rocket 2.2 11:06:12 10° NW 11:07:56 27° N 11:07:56 27° N
Cosmos 482 Debris 4.0 11:06:03 10° NNW 11:09:48 39° NE 11:10:04 38° ENE
ARIANE 5 R/B 0.0 11:07:41 10° W 11:10:05 59° S 11:10:16 55° SE
Delta 128 3.6 11:07:01 10° WNW 11:11:30 84° SSW 11:14:50 20° ESE
COSMOS 2428 2.9 11:07:58 10° S 11:13:24 46° ESE 11:16:57 20° NE
Ariane H10 4.1 01:27:00 10° W 11:13:26 49° S 11:16:59 19° ESE
ARIANE 42L R/B 3.8 11:11:31 10° WSW 11:14:34 39° SSE 11:18:52 19° ESE
SL-24 R/B - RUBIN 2 4.4 11:10:47 10° SSW 11:17:24 81° ESE 11:23:14 12° NNE
Genesis I 4.4 11:14:30 10° NW 11:18:19 45° WSW 11:22:05 10° S
Cosmos 2228 2.9 11:16:19 10° S 11:20:39 85° E 11:25:00 10° N
TOS 3.7 11:20:57 10° WSW 11:24:09 32° S 11:24:12 32° SSE
ARIANE 5 R/B 3.0 11:21:49 10° WSW 11:24:29 24° SSW 11:24:37 24° S
deb Ariane 4.0 11:20:14 10° W 11:27:53 48° N 11:28:40 40° NNE
H-2A R/B 2.5 11:26:09 10° SSE 11:30:38 75° ENE 11:34:59 10° N
CZ-4 R/B 3.0 11:27:17 10° SSE 11:36:54 - N 11:28:33 20° SSE
Feng Yun 1-1 Rocket 4.0 11:27:02 10° SSE 11:32:26 75° ENE 11:37:54 10° N
YAOGAN 1 2.4 11:30:11 10° SSE 11:34:28 66° ENE 11:38:44 10° N
Cosmos 1626 Rocket 3.4 11:32:03 10° N 11:36:21 88° W 11:40:42 10° S
Spot 2 3.8 11:33:04 10° S 11:37:06 85° WSW 11:41:09 10° NNW
Cosmos 2056 Rocket 3.3 11:33:51 10° S 11:39:04 84° ESE 11:41:04 38° NNE
Ariane 44LP R/B 2.9 11:37:44 10° WSW 11:39:29 39° SSW 11:39:29 39° SSW
Maqsat-H 2.4 11:42:04 10° WNW 11:45:45 59° N 11:46:49 50° NE
Iridium 51 4.4 11:41:43 10° S 11:45:56 76° W 11:45:56 76° W
NOSS 0 Rocket 4.2 11:41:17 10° S 11:46:40 46° ESE 11:46:40 46° ESE
Cosmos 1606 Rocket 4.2 11:43:41 10° SSW 11:48:01 55° W 11:50:47 21° NNW
H-2A R/B 4.5 11:45:06 10° SSW 11:49:08 23° WSW 11:53:15 10° NW
Hubble Space Telescope 2.1 11:47:01 10° W 11:50:27 32° NW 11:50:27 32° NW
Okean O Rocket 4.0 11:48:59 10° SSW 11:52:21 22° WSW 11:55:43 10° NW
Cosmos 2219 Rocket 3.1 11:47:06 10° SW 11:52:23 45° WNW 11:57:01 13° N
Cosmos 2333 Rocket 3.7 11:47:54 10° SW 11:52:54 33° WNW 11:57:56 10° N
Cosmos 1455 4.1 11:51:45 10° SSW 11:55:06 29° W 11:57:22 16° NW
